Regional Weather Roundup
Issued by NWS

Home | Current Version | Previous Version | Graphics & Text | Print | Product List | Glossary On
Versions: 1 2 3 4 5 6 7 8 9 10 11 12 13 14 15 16 17 18 19 20 21 22 23 24 25 26 27 28 29 30 31 32 33 34 35 36 37 38 39 40 41 42 43 44 45 46 47 48 49 50
000
ASUS45 KTFX 311419
RWRMT
MONTANA HOURLY WEATHER ROUNDUP
NATIONAL WEATHER SERVICE GREAT FALLS MT
819 AM MDT THU JUL 31 2014

NOTE: "FAIR" INDICATES FEW OR NO CLOUDS BELOW 12000 FEET WITH NO
SIGNIFICANT WEATHER AND/OR OBSTRUCTIONS TO VISIBILITY.

* THESE STATIONS ARE NOT UNDER NWS QUALITY CONTROL. THEY DO NOT
   REPORT WEATHER SUCH AS PRECIPITATION OR FOG.

MTZ001>007-043-311500-
WEST OF THE DIVIDE
CITY           SKY/WX    TMP DP  RH WIND       PRES   REMARKS
KALISPELL      PTCLDY    64  50  61 NE8       30.14S
MISSOULA       SUNNY     63  46  54 SE5       30.19S
BUTTE          SUNNY     52  43  72 SE5       30.32R
MULLAN PASS    SUNNY     68  34  28 W3        30.31R
* ESSEX        N/A       55  45  69 SE12       N/A
* LINCOLN      N/A       46  44  93 NE1        N/A
* LOOKOUT PASS N/A       58  44  60 S3         N/A
* POLSON       N/A       59  46  62 NE2        N/A
* RONAN APT    SUNNY     57  52  83 N/A        N/A
* SEELEY LAKE  N/A       45  41  86 N/A        N/A
* THOMP F APT  SUNNY     52  43  72 NE3G9      N/A
* YAAK HILL    N/A       59  50  72 N/A        N/A
$$

MTZ008-052>055-311500-
SOUTHWEST MONTANA
CITY           SKY/WX    TMP DP  RH WIND       PRES   REMARKS
BOZEMAN        SUNNY     61  45  56 SE3       30.25R
DILLON         SUNNY     55  45  69 SW9       30.29R
W YELLOWSTONE  SUNNY     50  43  77 CALM      30.39S
* THREE FORKS  SUNNY     55  27  34 N/A        N/A
* BOULDER HILL N/A       59  40  50 S9         N/A
* MONIDA PASS  N/A       48  44  86 W4         N/A
* RAYNOLDS PAS N/A       48  32  54 S3         N/A
* WHITEHALL    N/A       55  46  72 E1         N/A
* WISE RIVER   N/A       46  43  89 NW3        N/A
$$

MTZ009>010-012-014-046-048-049-054-311500-
EAST SLOPES AND CENTRAL MONTANA
CITY           SKY/WX    TMP DP  RH WIND       PRES   REMARKS
CUT BANK       PTCLDY    66  45  47 NW7       30.14F
GREAT FALLS    PTCLDY    64  45  50 W6        30.14S
HELENA         PTCLDY    64  45  50 CALM      30.21R
MALMSTROM AFB  SUNNY     66  46  49 W8        30.16R
* CONRAD       PTCLDY    61  54  78 N/A        N/A
* DEARBORN     N/A       58  47  67 S1         N/A
* MONARCH      N/A       56  39  53 S10        N/A
* PENDROY      N/A       68  50  53 NW6        N/A
* ROGERS PASS  N/A       61  41  48 SE4G9      N/A
* SAINT MARY   N/A       45  42  89 SE3        N/A
* SWEET GRASS  N/A       67  41  39 W9         N/A
* WHITE SULPH  N/A       60  42  52 NE3G8      N/A
$$

MTZ011-013-016-021-035-040-045-047-050-051-311500-
NORTH CENTRAL MONTANA
CITY           SKY/WX    TMP DP  RH WIND       PRES   REMARKS
HAVRE          PTCLDY    64  45  50 W10       30.06R
LEWISTOWN      PTSUNNY   64  43  47 SE6       30.18R
* FORT BENTON  PTCLDY    70  46  42 S9        30.11S
* CHESTER      N/A       64  46  52 S1         N/A
* DENTON       N/A       64  48  56 S4         N/A
* GEYSER       N/A       69  48  47 W14        N/A
* JUDITH GAP   N/A       67  45  45 N/A        N/A
* LOMA         N/A       66  45  47 SW6        N/A
$$

MTZ017>020-022>027-061-062-311500-
NORTHEAST MONTANA
CITY           SKY/WX    TMP DP  RH WIND       PRES   REMARKS
GLASGOW        PTCLDY    73  52  48 SE18      30.05F
GLENDIVE       PTSUNNY   72  52  49 S10       30.13F
JORDAN         PTSUNNY   73  46  38 S14       30.08F
SIDNEY         CLOUDY    64  57  78 SW7       30.10S
WOLF POINT     PTCLDY    75  50  42 S5        30.07F
* BEAVER HILL  N/A       65  51  61 S13        N/A
* CIRCLE       N/A       73  52  48 SE10       N/A
* LINDSAY DVD  N/A       67  52  59 SE6G11     N/A
$$

MTZ028>042-056>058-311500-
SOUTHCENTRAL AND SOUTHEAST MONTANA
CITY           SKY/WX    TMP DP  RH WIND       PRES   REMARKS
BAKER          PTSUNNY   72  54  53 S10       30.17F
BILLINGS       PTCLDY    64  41  43 SW13      30.14S
LIVINGSTON     PTCLDY    59  41  51 NW5       30.23R
MILES CITY     PTCLDY    66  48  52 S6        30.12F
* LAUREL APT   PTCLDY    64  43  47 SW5        N/A
* ROUNDUP APT  PTCLDY    59  39  48 S7         N/A
* ALZADA       N/A       64  48  56 N/A        N/A
* HYSHAM       N/A       74  39  28 W6         N/A
* LAME DEER    N/A       70  40  34 S8         N/A
* REED POINT   N/A       56  45  67 SE1        N/A
* ROSCOE HILL  N/A       70  35  28 SW5        N/A
$$

REGIONAL REPORTS...DAKOTAS
CITY           SKY/WX    TMP DP  RH WIND       PRES   REMARKS
WILLISTON      PTSUNNY   66  61  84 W9        30.08R
DICKINSON      CLOUDY    63  57  81 E3        30.10F
CROSBY         N/A       66  64  93 SE6       30.08F
TIOGA          PTCLDY    66  66 100 SE5       30.12S
WATFORD CITY   SUNNY     66  59  78 SE8       30.06F
BISMARCK       PTCLDY    66  57  73 CALM      30.11S
GRAND FORKS    SUNNY     68  61  78 NW7       30.02F
FARGO          SUNNY     66  57  73 CALM      30.04F
BUFFALO SD     SUNNY     63  55  75 SW5       30.11F
RAPID CITY     SUNNY     70  52  53 NW6       30.17S
$$

REGIONAL REPORTS...WYOMING/IDAHO/WASHINGTON
CITY           SKY/WX    TMP DP  RH WIND       PRES   REMARKS
GILLETTE       SUNNY     70  48  46 SW7       30.23R
SHERIDAN       SUNNY     63  46  54 CALM      30.19R
YELLOWSTONE LA PTCLDY    48  43  83 CALM      30.48R
SALMON         SUNNY     55  48  77 CALM      30.26S
MULLAN PASS    SUNNY     68  34  28 W3        30.31S
SAND POINT     SUNNY     59  52  78 CALM      30.07S
SPOKANE        SUNNY     70  43  38 SE6       30.05R
$$

REGIONAL REPORTS...ALBERTA
CITY           SKY/WX    TMP DP  RH WIND       PRES   REMARKS
CALGARY        SUNNY     66  55  68 NW17G24   30.14S
LETHBRIDGE     SUNNY     63  52  68 SW8       30.09S
MEDICINE HAT   N/A       66  54  65 S8        30.03S
EDMONTON       PTSUNNY   68  59  73 NE5       30.11R
WATERTON GATE  N/A       63  48  58 SW7        N/A
CARDSTON       N/A       63  48  58 SW6        N/A
MILK RIVER     N/A       63  45  52 W12        N/A
$$

REGIONAL REPORTS...SASKATCHEWAN
CITY           SKY/WX    TMP DP  RH WIND       PRES   REMARKS
SWIFT CURRENT  SUNNY     66  54  65 SW12      30.02F
MOOSE JAW      SUNNY     64  59  84 SE7       30.06S
REGINA         SUNNY     66  59  78 SE9       30.07S
VAL MARIE      N/A       70  52  53 S1         N/A
ASSINIBOIA     N/A       68  55  63 S3         N/A
CORONACH       N/A       64  55  73 SE7        N/A

$$




USA.gov is the U.S. government's official web portal to all federal, state and local government web resources and services.